Retour au catalogue

CZ-6A DEB

ActifPO
NORAD 61396·DEBRIS·🇨🇳 China

Lancé Aug 6, 2024 depuis Taiyuan Satellite Launch Center

Loading…

Prochains Passages (prochaines 24 heures)

TLE

FraisSource: Space-Track

Époque: Sep 13, 2026, 23:59 UTC

1 61396U 24140XM  26256.99958468  .00001906  00000-0  27360-3 0  9992
2 61396  89.0574 263.9037 0138331 211.6823 147.6017 14.69649632107635

Suivez CZ-6A DEB en temps réel avec AllMySat

Download on the App Store